Tracking 23731 objects as of 27-Sep-2021
HD Live streaming from Space Station
objects crossing your sky now

ARIANE 5 DEB (SYLDA)

Track ARIANE 5 DEB (SYLDA) now!
10-day predictions


NORAD ID: 29274
Int'l Code: 2006-033C
Perigee: 371.9 km
Apogee: 19,917.1 km
Inclination: 5.9 °
Period: 352.0 minutes
Semi major axis: 16515 km
RCS: 12.1884 m2 (large)
Launch date: August 11, 2006
Source: France (FR)
Launch site: FRENCH GUIANA (FRGUI)

Note: This is SATELLITE DEBRIS
aabbcc
Your satellite tracking list
Your tracking list is empty




NASA's NSSDC Master Catalog

Two Line Element Set (TLE):
1 29274U 06033C   21270.11791720  .00000885  00000-0  59006-3 0  9990
2 29274   5.8664 279.9053 5917238 159.0062 241.9449  4.09039177175206
Source of the keplerian elements: AFSPC